Location: Baia Mare
(47.6567°N, 23.5850°E)
Time: 13:40:49
(UTC+03:00)

ISS - Pass Details

Date: 15 July 2019
Orbit: 409 x 418 km, 51.6° (Epoch: 21 July)

Event Time Altitude Azimuth Distance (km) Brightness Sun altitude
Exits shadow 23:25:31 21° 96° (E) 977 -2.2 -15.3°
Drops below altitude 10° 23:27:01 10° 79° (ENE) 1,484 -1.2 -15.4°
Sets 23:29:13 0° 69° (ENE) 2,347 0.0 -15.6°
